Weather History for Mobile Downtown, AL

Change the Weather History Date:

Friday, May 11, 2012

  Actual Average Record
Temperature  
Mean Temperature 70 °F -  
Max Temperature 81 °F 81 °F 91 °F (2007)
Min Temperature 60 °F 62 °F 52 °F (1997)
Cooling Degree Days 6    
Growing Degree Days 20 (Base 50)    
Moisture  
Dew Point 57 °F    
Average Humidity 61    
Maximum Humidity 90    
Minimum Humidity 38    
Precipitation  
Precipitation 0.00 in - - ()
Sea Level Pressure  
Sea Level Pressure 30.03 in    
Wind  
Wind Speed 6 mph (ESE)    
Max Wind Speed 17 mph    
Max Gust Speed 22 mph    
Visibility 10 miles    
Events      
Averages and records for this station are not official NWS values.
T = Trace of Precipitation, MM = Missing Value Source: NWS Daily Summary

Daily Weather History Graph

Daily Weather History Graph

Search for Another Location

Airport:

Trip Planner

Search our weather history database for the weather conditions in past years. The results will help you decide how hot, cold, wet, or windy it might be!

Date:

Astronomy

May. 11, 2012 Rise Set
Actual Time 5:59 AM CDT 7:37 PM CDT
Civil Twilight 5:33 AM CDT 8:03 PM CDT
Nautical Twilight 5:02 AM CDT 8:35 PM CDT
Astronomical Twilight 4:29 AM CDT 9:08 PM CDT
Moon 12:19 AM CDT (5/11) 11:28 AM CDT (5/11)
Length of Visible Light 14h 30m
Length of Day
13h 37m
Waning Gibbous, 63% of the Moon is Illuminated
May 11
Waning Gibbous
May 12
Last Quarter
May 20
New
May 28
First Quarter
Jun 4
Full

Hourly Weather History & Observations

Time (CDT) Temp. Heat Index Dew Point Humidity Pressure Visibility Wind Dir Wind Speed Gust Speed Precip Events Conditions
12:53 AM 63.0 °F - 57.9 °F 84% 29.99 in 10.0 mi West 4.6 mph - N/A   Clear
1:53 AM 60.1 °F - 57.0 °F 90% 29.98 in 10.0 mi Calm Calm - N/A   Clear
2:53 AM 61.0 °F - 57.0 °F 87% 29.98 in 10.0 mi Calm Calm - N/A   Clear
3:53 AM 60.1 °F - 57.0 °F 90% 29.98 in 10.0 mi Calm Calm - N/A   Clear
4:36 AM 60.8 °F - 57.2 °F 88% 29.99 in 10.0 mi NW 4.6 mph - N/A   Clear
4:53 AM 60.1 °F - 55.9 °F 86% 29.99 in 10.0 mi NW 5.8 mph - N/A   Clear
5:53 AM 60.1 °F - 55.9 °F 86% 30.00 in 10.0 mi NNW 4.6 mph - N/A   Clear
6:53 AM 64.0 °F - 57.9 °F 80% 30.01 in 10.0 mi NW 4.6 mph - N/A   Clear
7:53 AM 70.0 °F - 57.9 °F 65% 30.01 in 10.0 mi NE 9.2 mph - N/A   Clear
8:53 AM 75.0 °F - 55.9 °F 51% 30.02 in 10.0 mi East 12.7 mph - N/A   Clear
9:53 AM 78.1 °F - 55.0 °F 45% 30.04 in 10.0 mi East 12.7 mph - N/A   Clear
10:53 AM 79.0 °F - 53.1 °F 40% 30.06 in 10.0 mi ESE 10.4 mph - N/A   Clear
11:53 AM 80.1 °F - 52.0 °F 38% 30.08 in 10.0 mi ESE 8.1 mph - N/A   Partly Cloudy
12:53 PM 81.0 °F 80.4 °F 53.1 °F 38% 30.08 in 10.0 mi ESE 5.8 mph - N/A   Partly Cloudy
1:53 PM 80.1 °F 80.4 °F 57.0 °F 45% 30.08 in 10.0 mi South 6.9 mph - N/A   Partly Cloudy
2:53 PM 80.1 °F 80.6 °F 57.9 °F 47% 30.06 in 10.0 mi SSE 8.1 mph - N/A   Scattered Clouds
3:53 PM 81.0 °F 80.7 °F 55.0 °F 41% 30.04 in 10.0 mi ESE 9.2 mph - N/A   Scattered Clouds
4:53 PM 80.1 °F 80.0 °F 54.0 °F 40% 30.05 in 10.0 mi SE 10.4 mph - N/A   Clear
5:53 PM 78.1 °F - 55.0 °F 45% 30.06 in 10.0 mi SE 12.7 mph - N/A   Scattered Clouds
6:53 PM 75.9 °F - 55.0 °F 48% 30.05 in 10.0 mi SE 11.5 mph - N/A   Partly Cloudy
7:53 PM 75.9 °F - 57.9 °F 54% 30.06 in 10.0 mi SE 15.0 mph - N/A   Overcast
8:53 PM 75.9 °F - 60.1 °F 58% 30.04 in 10.0 mi SE 12.7 mph 21.9 mph N/A   Mostly Cloudy
9:53 PM 75.0 °F - 62.1 °F 64% 30.04 in 10.0 mi SE 17.3 mph - N/A   Clear
10:53 PM 75.9 °F - 60.1 °F 58% 30.06 in 10.0 mi SE 10.4 mph - N/A   Clear
11:53 PM 75.0 °F - 61.0 °F 62% 30.06 in 10.0 mi ESE 8.1 mph - N/A   Partly Cloudy